GFSNGP_sfc_dewp_054.txt.gz
Dewpoint
25 25 25 24 23 27 26 26 24 24 25 25 26 27 24 26 26 29 37 44 46 47 48 50 50 49 49 48 47 47 46 46 46 45 43 43 43 39 39 38 35 34 34 35
28 28 27 25 25 26 26 26 25 25 24 27 27 30 31 33 36 39 42 43 42 45 45 49 49 48 47 45 45 46 45 45 43 42 41 38 37 38 37 35 33 33 36 35
23 26 26 24 26 25 25 25 26 24 26 26 29 31 32 33 36 38 40 41 45 45 46 47 46 45 44 45 45 43 41 40 39 38 37 36 34 33 32 35 39 38 38 34
24 24 17 26 30 28 27 25 24 23 25 28 31 35 36 36 37 34 33 33 35 39 40 40 40 39 37 38 38 36 35 35 34 33 33 34 36 38 39 39 39 37 33 31
24 24 23 25 25 25 24 22 26 25 31 33 35 35 35 33 33 32 32 31 30 31 32 32 33 33 33 33 33 32 31 32 33 35 36 37 38 39 40 37 33 31 30 29
24 20 17 25 27 26 25 21 29 31 33 34 33 26 32 32 31 30 30 30 29 30 30 31 31 31 31 31 31 31 33 34 38 40 40 40 39 36 34 31 30 29 28 28
22 22 26 31 28 27 20 23 31 32 33 34 31 31 32 31 30 30 29 29 30 30 30 31 31 31 32 33 34 35 39 41 41 38 35 34 31 29 29 29 28 28 28 28
25 21 23 30 27 24 27 34 34 34 36 36 33 32 31 31 29 29 28 29 29 29 30 31 32 34 35 36 37 35 34 33 32 31 30 30 29 29 29 28 27 27 25 27
31 31 33 34 30 34 34 34 35 36 38 34 32 32 31 30 29 28 27 27 28 28 29 30 30 30 30 31 31 30 29 28 28 28 28 28 28 28 28 27 26 26 27 27
32 35 37 39 38 38 38 38 39 39 35 34 33 32 31 31 30 29 27 27 28 29 29 28 28 28 28 29 29 27 27 27 27 27 28 28 27 27 27 25 26 27 27 27
34 37 38 38 36 37 36 37 36 35 34 33 33 31 31 30 29 28 28 29 30 27 27 28 30 31 30 29 29 28 28 28 27 27 27 26 27 27 27 27 27 27 28 28
32 38 36 36 36 37 36 35 35 34 33 33 32 31 29 29 29 29 29 27 26 27 29 29 27 27 28 27 26 25 25 26 26 25 25 25 25 24 26 27 27 28 28 27
35 39 37 37 36 36 35 34 34 33 33 31 30 29 29 29 28 28 27 28 29 29 28 24 21 23 25 25 24 23 23 22 22 21 21 22 22 21 20 21 23 24 24 26
37 36 35 35 34 34 34 33 33 31 31 30 30 29 28 27 27 27 28 30 28 25 23 20 21 24 22 20 20 20 19 20 19 19 20 20 19 19 19 18 19 21 21 21
36 36 36 34 33 32 32 31 30 29 29 29 28 28 27 26 26 27 29 27 21 19 20 21 20 20 19 18 15 17 18 18 19 18 18 20 19 18 18 19 20 17 17 17
34 34 33 32 31 31 31 30 29 28 28 28 28 26 25 25 26 27 27 26 20 19 20 18 17 14 15 15 16 17 16 18 16 17 16 16 15 15 15 17 15 14 14 14
32 31 31 31 31 30 29 29 29 28 29 28 25 24 25 26 25 23 21 20 21 21 19 17 13 11 13 14 15 14 15 15 12 13 13 13 12 13 12 12 10 11 11 12
34 33 33 32 30 28 28 29 29 29 27 26 24 24 23 23 22 22 20 19 20 19 16 14 12 10 10 12 11 11 12 9 9 9 9 8 8 9 10 7 7 6 6 8
34 33 32 31 29 29 28 28 27 25 24 23 22 22 23 22 21 19 17 16 15 16 15 12 15 10 7 11 8 9 9 4 4 6 4 3 2 3 5 2 3 2 3 5
33 33 32 31 31 30 28 26 24 23 21 21 21 20 21 20 18 16 16 14 14 16 15 11 9 8 7 8 7 7 4 -2 3 -0 -3 -1 -8 -7 -4 -3 -1 -1 -1 1
31 31 30 29 27 26 25 22 21 20 20 21 20 19 19 19 17 15 16 15 14 17 14 13 10 9 7 6 7 -0 -6 -9 -9 -8 -10 -12 -14 -11 -12 -11 -6 -5 -3 -2
29 27 26 26 23 20 19 19 20 20 19 18 17 18 17 16 15 15 14 16 15 13 15 13 11 3 5 1 5 -7 -1 -5 -9 -12 -15 -16 -18 -16 -14 -16 -11 -8 -7 -5
28 27 25 23 21 19 19 18 19 18 17 17 16 17 18 18 17 14 14 16 15 11 14 9 2 -2 -5 -11 -13 -15 -15 -16 -18 -15 -20 -23 -23 -20 -18 -14 -12 -11 -10 -8
26 24 22 22 20 18 16 16 16 16 17 17 14 12 16 13 11 16 14 7 4 -0 -0 -2 -3 -2 -9 -16 -18 -19 -19 -21 -22 -23 -18 -20 -26 -23 -20 -20 -16 -14 -12 -11
26 25 24 23 20 18 18 16 16 15 15 15 16 17 17 15 9 10 6 7 8 3 -2 -6 -5 -8 -16 -19 -19 -19 -19 -22 -23 -24 -25 -27 -24 -23 -22 -21 -21 -17 -14 -13
25 24 23 21 19 19 19 19 18 16 12 11 12 6 6 8 8 6 3 0 2 -2 -2 -11 -14 -16 -19 -18 -19 -19 -13 -13 -21 -21 -25 -27 -27 -22 -23 -21 -21 -19 -17 -14
21 21 19 17 15 15 16 16 15 13 10 6 7 6 7 4 -0 2 -7 -11 -12 -13 -14 -14 -18 -16 -17 -21 -20 -17 -16 -17 -22 -21 -28 -31 -30 -28 -26 -24 -22 -20 -18 -16

GFSNGP_sfc_dewp_057.txt.gz
Dewpoint
25 23 26 27 29 30 28 30 29 28 26 27 28 28 28 31 34 41 41 42 45 48 51 52 53 54 53 52 50 50 48 47 47 46 45 44 45 43 41 41 40 40 40 39
27 27 26 25 25 29 29 27 27 26 26 29 28 29 33 36 40 41 43 45 45 46 48 50 50 50 48 48 47 48 47 46 44 43 43 41 40 40 41 40 38 37 37 37
26 27 27 28 29 27 27 28 29 27 30 28 29 31 34 37 40 40 40 42 44 44 46 47 47 46 46 46 46 44 43 42 40 39 39 39 37 36 36 38 40 40 40 39
29 27 26 28 29 28 29 28 27 25 25 27 31 35 35 36 36 35 36 38 39 40 41 42 42 42 41 40 39 38 36 35 35 35 35 36 39 41 41 41 41 41 40 39
30 27 26 24 26 28 28 25 28 27 26 31 35 35 34 33 33 33 33 33 34 35 36 36 37 37 36 35 34 33 33 35 37 39 39 40 40 40 41 41 39 36 34 33
27 26 25 30 28 28 26 24 29 29 32 34 35 34 33 33 32 32 31 32 32 33 34 34 34 34 33 32 34 36 38 39 40 41 41 40 39 36 35 34 32 31 30 32
27 31 29 30 29 30 26 27 32 32 34 36 34 34 35 32 31 31 31 31 33 33 32 32 33 34 34 35 36 39 41 38 35 34 33 32 32 32 31 30 31 32 31 32
29 30 27 33 26 28 34 33 35 35 37 38 35 33 32 31 30 30 30 30 31 32 32 34 35 36 35 34 33 32 32 31 30 30 28 28 30 30 29 30 30 31 34 32
32 34 36 32 35 34 34 35 36 37 37 35 33 32 31 30 29 29 29 29 30 31 31 31 30 30 28 29 28 28 28 29 29 29 28 28 28 28 27 27 27 28 27 28
35 35 36 37 39 39 38 37 37 39 36 35 33 32 30 29 28 28 28 28 29 28 28 28 29 29 28 28 29 29 28 26 25 23 22 21 19 20 20 23 24 23 24 24
35 36 38 39 39 38 37 39 37 36 35 34 33 30 30 28 28 28 28 28 27 28 29 28 27 25 25 25 26 24 23 20 18 19 19 17 18 20 20 22 24 24 24 24
35 38 38 37 40 39 38 37 36 34 33 33 32 30 29 28 29 29 27 27 28 28 26 24 23 22 21 21 18 17 15 16 19 19 20 18 17 17 20 22 22 23 23 23
37 40 37 37 36 37 36 35 35 34 33 32 31 30 29 29 28 28 28 28 27 23 21 22 20 17 17 19 17 16 15 16 17 18 18 18 18 17 17 18 19 21 20 20
38 37 36 36 36 35 35 34 34 32 32 31 30 29 29 28 28 28 28 27 23 20 21 21 17 14 14 14 16 17 17 19 17 18 18 18 17 17 18 17 18 18 16 16
37 36 37 35 34 33 32 32 31 30 30 29 29 28 28 27 27 28 25 21 20 20 18 15 12 12 14 16 15 15 15 15 16 18 17 17 16 16 16 16 15 14 14 13
35 34 34 34 32 32 32 31 30 30 29 28 28 27 26 27 27 24 20 20 19 17 15 17 13 13 15 14 14 12 14 16 13 14 14 13 13 13 12 13 11 12 11 11
33 32 32 32 32 31 31 31 30 29 29 27 26 26 26 26 24 21 19 20 20 19 16 15 12 11 12 12 10 11 12 11 11 10 10 10 11 10 10 10 9 9 9 10
35 34 34 32 31 30 30 30 30 29 26 25 26 26 25 24 21 19 20 20 19 17 14 12 10 9 10 7 8 9 10 8 8 8 8 8 7 7 8 7 6 6 7 7
34 33 32 31 30 30 30 28 27 26 26 27 26 25 24 23 20 18 18 19 18 15 12 11 13 9 7 9 7 8 7 6 6 5 5 4 5 4 5 5 4 5 5 4
33 32 31 30 31 30 28 28 28 26 26 25 24 23 22 21 20 19 18 16 15 15 12 10 8 7 7 7 7 5 5 5 3 4 4 3 3 2 2 0 0 2 3 3
31 30 29 29 28 28 27 27 25 23 21 24 23 21 21 19 18 18 16 14 15 16 13 12 10 8 7 7 6 8 7 5 4 3 2 1 0 -0 -0 -0 0 0 1 1
28 27 26 26 25 25 25 23 21 22 21 21 21 20 19 18 18 17 18 15 15 16 14 13 11 7 7 7 7 8 6 3 3 3 2 0 -1 -2 -3 -2 -3 -2 -1 -1
27 26 25 24 22 19 19 20 21 21 20 20 19 19 18 17 16 15 14 15 15 15 14 13 9 5 3 9 8 7 6 3 1 1 1 -1 -2 -3 -4 -5 -5 -4 -4 -3
26 24 22 18 19 17 16 16 17 18 19 19 19 19 18 17 17 16 16 13 11 13 12 11 8 3 2 6 6 5 4 3 1 1 0 -7 -2 -5 -6 -8 -8 -6 -6 -6
25 25 24 23 22 21 19 17 16 16 17 17 18 18 17 15 17 15 14 13 11 10 11 2 1 -1 4 4 4 3 2 2 2 0 -1 -3 -4 -6 -7 -8 -10 -9 -9 -8
23 21 21 21 21 21 20 18 15 14 14 14 14 15 14 13 11 10 9 8 8 6 8 7 5 4 4 2 1 1 1 2 1 -1 -4 -4 -6 -8 -9 -11 -11 -11 -10 -9
20 20 18 17 17 17 18 17 16 13 13 14 13 13 12 11 9 7 5 6 5 5 5 5 4 1 2 1 1 1 0 0 -3 -3 -4 -6 -8 -9 -11 -12 -12 -12 -11 -11

GFSNGP_sfc_dewp_060.txt.gz
Dewpoint
21 19 18 19 18 21 22 23 22 23 19 25 26 27 28 31 32 37 39 39 40 47 50 52 55 56 55 54 52 52 50 50 49 48 47 46 46 45 45 45 42 41 41 41
25 22 22 20 20 19 22 21 26 25 23 26 28 29 30 33 37 40 43 44 45 47 50 52 53 52 52 52 52 50 49 46 45 45 45 44 44 44 44 43 41 40 40 40
24 26 26 29 27 22 23 28 28 25 26 26 28 29 31 36 39 41 43 44 45 48 49 50 50 50 50 49 49 48 46 44 43 43 43 43 41 39 37 38 38 39 40 40
28 32 30 24 29 26 26 25 26 26 26 27 27 31 35 39 40 40 41 42 44 45 46 46 46 46 46 44 44 43 41 41 40 40 38 38 39 40 40 41 40 41 42 41
36 28 24 25 26 28 28 25 27 27 26 27 32 35 35 36 39 39 40 40 41 42 43 44 43 43 41 40 38 37 38 39 39 40 39 39 40 41 42 42 41 39 36 34
32 30 32 26 26 30 30 28 26 27 27 29 34 33 30 36 36 36 37 38 39 40 41 41 41 40 39 38 39 39 39 39 39 40 40 39 38 37 37 35 32 31 30 30
33 34 30 29 28 29 27 30 30 29 30 34 34 34 38 36 35 35 36 36 38 38 38 38 38 39 38 38 38 39 39 37 37 35 34 34 32 31 31 30 30 32 32 33
35 37 33 31 28 28 32 36 34 35 35 38 38 37 36 34 34 34 34 35 35 36 37 37 37 38 37 36 35 35 33 30 29 29 26 26 29 30 29 30 31 30 37 29
33 33 37 34 32 33 36 34 36 36 36 39 37 35 34 33 33 33 33 33 35 35 36 35 34 33 31 31 30 30 29 29 28 27 26 25 25 25 23 21 22 23 22 25
36 32 34 36 34 37 35 36 35 36 37 39 36 35 34 33 32 32 32 32 32 32 31 30 30 29 29 28 28 28 27 26 24 20 19 17 14 14 16 21 23 21 22 23
36 36 37 38 38 37 37 39 38 37 38 37 36 34 33 32 31 31 31 31 31 31 30 28 27 26 26 26 25 23 21 18 17 18 16 14 14 17 19 22 23 22 23 22
37 36 39 35 39 40 39 38 37 37 37 36 35 33 32 31 31 30 30 30 30 29 27 24 22 21 20 19 18 17 14 15 19 19 19 15 13 14 21 20 19 22 20 21
36 38 39 40 38 40 39 39 38 37 37 35 34 33 31 31 31 30 29 29 27 25 23 20 18 17 16 17 16 15 13 15 17 18 17 17 17 17 17 20 18 18 16 16
40 39 38 38 37 39 38 38 38 36 35 35 33 32 32 31 29 29 29 26 24 23 19 16 14 13 14 15 16 16 16 18 17 18 17 19 18 18 18 19 20 19 15 14
40 40 39 38 37 37 37 36 35 34 34 33 32 32 31 29 29 29 25 23 22 21 17 13 11 12 14 16 12 13 14 14 18 20 19 18 19 18 18 17 16 16 15 13
39 37 37 37 36 36 35 34 34 34 33 32 32 31 30 29 27 24 22 22 19 16 14 19 15 13 15 12 10 11 14 14 14 16 16 16 16 16 14 15 14 15 14 14
37 36 37 36 36 35 35 35 34 33 32 31 31 30 29 25 23 21 21 20 21 20 18 17 13 11 12 9 8 10 11 11 12 13 14 13 14 14 13 14 13 13 14 15
37 37 37 37 36 35 34 34 33 32 31 30 29 28 27 25 23 23 21 21 19 17 12 11 10 9 7 7 7 10 11 10 12 13 12 14 11 11 12 12 11 10 12 12
36 35 36 35 35 34 33 32 29 28 28 29 27 26 25 25 24 22 21 20 19 15 11 11 13 9 8 10 7 10 11 13 11 10 10 9 12 10 11 12 10 10 10 10
32 33 33 32 32 31 29 29 30 29 29 27 27 25 23 23 23 22 22 19 16 14 11 10 8 8 7 7 7 8 11 12 9 11 12 10 11 10 10 7 7 9 10 10
30 30 30 29 28 28 28 28 28 26 27 27 24 23 22 22 22 20 18 15 14 14 12 12 10 9 7 7 6 13 13 13 12 11 11 10 10 9 8 8 8 8 9 9
28 27 28 28 27 27 27 27 26 25 25 24 24 23 21 20 20 20 20 16 16 16 14 13 11 10 9 7 10 14 11 10 10 10 10 9 8 7 6 6 6 6 6 7
28 28 27 26 25 24 24 24 25 25 24 24 23 23 20 18 17 17 15 15 16 16 14 15 12 10 5 14 14 12 11 9 9 8 8 8 7 6 5 4 3 3 4 4
26 25 24 22 21 21 21 22 21 21 21 21 21 21 19 20 19 18 17 16 15 16 16 15 13 3 6 13 12 11 9 9 8 8 6 3 6 5 4 3 1 2 1 1
26 26 26 24 22 21 21 20 18 17 17 17 18 18 18 19 21 18 18 16 13 12 15 8 3 2 11 11 9 8 8 8 8 7 6 5 4 3 3 2 -0 -0 -2 -1
23 22 22 23 22 21 21 20 18 18 17 17 18 19 19 18 16 16 15 12 11 8 12 13 11 10 10 8 7 7 7 6 6 5 4 3 3 1 1 -1 -2 -2 -2 -2
20 21 19 18 18 18 19 19 19 18 19 20 18 19 18 18 16 14 13 15 13 11 11 10 10 8 7 7 6 6 5 5 3 2 2 2 1 1 -0 -2 -3 -3 -4 -4

GFSNGP_sfc_dewp_063.txt.gz
Dewpoint
21 19 18 18 20 21 21 23 24 23 19 19 21 23 25 30 30 30 33 33 33 42 45 50 53 56 56 55 54 53 52 50 50 49 48 47 47 46 46 45 44 43 42 42
23 21 18 18 17 16 15 17 17 17 17 20 22 21 25 28 30 33 38 40 41 43 48 52 54 54 53 52 51 50 49 48 48 47 46 46 45 44 44 43 42 41 41 41
26 22 22 26 21 18 18 19 20 21 23 22 23 23 25 28 34 36 41 43 45 47 51 52 52 52 52 50 49 47 47 46 46 45 45 45 44 43 42 42 41 41 40 40
32 34 29 24 23 22 22 21 20 21 20 22 21 23 27 32 35 40 42 44 47 48 49 50 50 50 50 48 47 46 45 44 44 43 41 41 40 41 41 40 40 40 40 41
34 30 25 21 25 25 23 21 21 21 20 21 25 32 35 36 39 41 43 44 45 46 46 46 45 45 44 43 43 42 41 40 41 42 41 40 40 40 41 40 41 41 40 37
34 29 28 27 25 26 25 28 25 23 25 25 31 34 27 37 41 41 40 41 42 43 43 43 43 42 41 41 41 41 41 41 41 40 40 41 41 41 41 39 34 32 30 30
34 32 28 25 25 26 29 30 26 26 26 27 30 32 38 39 39 38 38 39 41 41 41 41 41 42 41 41 40 40 40 40 40 39 38 37 35 33 31 29 29 33 32 33
36 36 33 32 29 29 34 34 32 31 30 33 37 40 38 38 37 37 37 38 39 39 39 40 40 40 39 39 39 38 37 35 33 31 27 27 29 29 28 29 30 30 29 27
34 33 36 35 34 35 33 35 35 35 32 35 40 38 37 36 36 36 36 36 37 38 39 39 39 39 37 36 34 34 33 31 29 27 25 24 24 24 21 20 23 24 23 25
36 34 33 34 36 35 36 37 35 36 35 37 40 38 36 35 36 36 35 35 36 37 37 36 35 33 33 33 31 30 29 27 24 23 19 16 13 14 16 23 23 21 22 23
32 30 29 35 37 38 35 38 36 35 35 38 39 37 35 35 35 34 34 35 36 35 33 32 31 30 29 28 28 25 22 19 19 18 16 14 14 16 20 24 22 22 24 22
36 33 38 36 37 40 39 37 38 36 36 39 37 36 35 35 35 34 34 34 33 33 31 29 28 26 26 25 22 19 17 17 22 22 21 15 13 18 21 21 21 23 19 20
33 34 37 41 40 38 40 39 39 38 37 37 37 35 35 34 34 33 33 33 32 30 27 25 22 19 17 18 19 19 18 19 18 20 18 17 18 18 18 22 20 21 17 15
33 36 40 39 38 39 39 39 40 38 37 37 36 35 35 34 33 32 32 32 29 26 23 20 17 16 17 16 17 18 17 22 18 18 18 20 19 19 19 20 21 21 19 14
36 39 41 40 39 38 38 38 38 37 37 37 36 35 34 33 31 32 31 27 24 21 18 14 13 13 15 18 15 16 15 16 20 22 21 19 20 20 19 18 18 18 17 17
35 36 39 39 38 37 37 37 37 37 36 35 35 34 33 32 31 28 26 25 23 18 17 21 16 16 17 12 12 14 13 16 17 17 17 17 17 17 16 16 16 16 16 16
40 39 39 39 38 37 36 37 36 36 35 34 35 35 31 29 27 24 21 22 24 23 21 18 14 13 13 10 10 11 12 13 14 13 14 15 16 16 14 16 16 15 16 17
39 39 39 39 39 38 37 37 37 36 34 34 32 30 29 27 24 23 22 22 22 21 20 21 19 9 8 8 9 11 12 11 12 14 13 16 14 13 14 14 14 13 14 14
37 37 38 37 37 36 34 31 30 29 29 28 27 26 25 25 24 23 22 21 20 19 19 17 16 12 10 12 9 12 13 14 13 12 14 11 15 14 14 15 14 14 13 13
33 34 32 31 31 31 29 30 28 27 27 26 25 25 23 23 23 23 25 23 22 18 16 13 9 8 7 8 9 10 14 15 12 13 15 12 14 14 14 11 11 12 13 13
28 29 29 29 29 30 30 30 28 27 27 26 25 23 23 24 23 23 21 17 16 15 13 12 10 9 7 7 7 15 15 15 14 13 14 14 14 13 12 12 12 12 12 11
29 28 28 28 28 28 29 29 28 26 25 24 23 23 23 22 22 22 23 17 15 16 14 13 12 12 9 11 10 15 13 12 12 13 13 13 12 11 11 10 9 10 9 9
29 28 27 27 26 26 27 27 27 26 25 25 25 24 23 22 19 17 16 16 16 16 16 17 13 11 9 15 15 14 13 12 12 12 11 11 11 10 9 8 8 7 7 7
28 27 27 27 26 23 22 23 23 23 24 23 24 23 21 20 20 18 18 17 16 17 18 15 13 9 8 14 14 13 12 12 12 12 11 8 10 10 8 7 6 6 5 4
27 27 26 25 23 23 23 22 21 20 19 18 18 18 19 19 22 19 19 17 14 14 18 10 8 6 12 13 12 11 11 11 12 9 8 8 8 7 7 6 5 4 3 2
24 24 24 24 24 23 23 21 20 20 19 20 20 22 21 20 19 18 17 15 14 12 15 16 14 11 12 12 11 9 10 8 9 9 7 6 7 6 5 4 3 2 2 2
22 22 20 19 18 18 19 19 19 18 19 21 19 19 19 19 17 16 15 16 15 14 13 13 12 11 9 9 7 9 9 8 8 6 4 4 4 4 3 3 2 1 -0 -1

GFSNGP_sfc_dewp_066.txt.gz
Dewpoint
22 22 22 22 21 19 18 25 28 27 22 22 23 24 27 33 32 29 30 32 35 40 46 49 55 56 55 55 54 53 52 50 49 49 48 47 46 47 46 46 45 43 43 42
27 23 21 21 20 20 19 19 20 21 23 23 22 21 23 28 29 30 33 38 39 42 48 55 55 53 52 51 50 50 48 48 47 47 47 46 46 44 44 43 42 42 41 41
27 24 22 24 24 19 19 21 20 20 23 22 21 22 26 28 28 31 39 41 43 45 53 54 53 52 51 49 48 48 48 47 47 46 46 45 44 43 42 42 42 42 41 41
32 33 24 25 24 21 23 21 19 18 19 20 21 23 28 31 33 37 41 44 46 51 52 52 52 51 50 49 48 47 46 46 46 45 44 43 43 42 43 42 40 40 40 40
31 29 26 23 24 25 24 23 23 22 21 20 21 32 35 36 40 43 44 46 49 50 50 50 50 50 48 47 46 45 45 44 42 42 41 41 41 40 41 41 41 41 41 41
37 28 27 31 27 28 28 26 26 25 29 27 31 37 34 38 42 43 44 45 46 47 47 47 46 45 44 43 43 41 41 41 42 42 41 41 41 41 41 41 40 39 34 34
33 32 32 30 29 30 27 31 34 31 31 33 34 37 40 40 42 42 42 43 44 44 44 43 43 43 42 42 41 41 42 41 41 41 41 41 41 40 38 34 35 33 32 33
35 32 30 34 30 28 34 40 37 36 37 42 43 41 40 41 41 39 39 40 42 42 42 42 42 42 41 40 41 41 40 39 38 37 34 33 33 31 30 34 33 31 28 28
34 35 40 39 38 40 41 43 42 41 39 40 42 40 39 39 39 38 38 39 40 40 41 41 41 41 40 39 39 38 36 34 31 30 29 29 30 28 27 27 27 28 28 29
41 35 34 39 39 40 39 41 39 38 40 40 42 40 39 39 38 38 37 38 38 39 40 40 40 39 38 37 35 34 32 30 28 26 23 21 17 19 26 27 27 27 27 26
38 38 38 36 37 41 41 42 40 39 39 39 42 40 39 37 37 37 37 37 38 39 39 38 36 35 34 33 33 30 28 24 21 22 21 19 19 21 25 22 24 25 25 24
36 36 41 40 43 43 42 41 41 40 40 39 42 40 38 37 37 37 37 37 38 38 35 33 32 31 31 30 28 25 21 23 28 27 25 19 19 19 24 23 24 23 21 22
30 36 38 41 41 42 40 41 41 42 41 38 41 39 38 37 38 36 37 37 35 34 32 31 28 27 25 26 25 24 22 23 24 25 25 24 24 25 23 22 23 22 20 17
33 35 37 38 40 41 41 40 42 40 41 43 41 39 39 37 36 36 35 35 33 30 27 24 21 20 20 20 21 22 21 26 24 24 24 25 23 24 24 24 23 24 21 19
33 35 38 42 41 39 39 39 39 39 39 39 39 39 37 36 35 35 33 30 27 25 22 18 16 16 18 24 19 20 21 22 25 25 23 22 23 23 23 22 22 22 21 20
40 38 39 39 39 39 38 38 38 39 39 38 38 38 36 34 31 28 27 26 23 20 19 21 19 19 22 18 16 15 16 20 22 21 22 22 21 21 20 20 20 21 20 20
40 40 40 40 40 39 37 39 38 38 38 38 37 32 28 24 23 22 21 21 21 20 20 19 16 14 17 18 18 19 22 18 19 17 18 18 19 19 18 19 19 19 18 16
39 39 39 39 39 39 36 33 33 32 30 29 27 25 24 23 21 21 21 21 21 21 22 21 21 21 21 21 21 19 17 16 16 17 16 19 16 15 18 17 16 16 17 16
36 36 35 34 33 32 31 29 28 27 26 25 23 22 22 22 22 22 22 21 19 18 20 21 21 19 17 17 17 18 18 18 15 14 15 14 16 17 17 17 16 15 14 14
30 30 30 30 29 28 27 27 26 26 26 24 23 22 21 21 23 23 23 20 21 20 21 20 17 14 11 11 14 14 16 17 13 16 17 14 15 16 14 13 14 13 13 12
28 28 28 28 28 28 28 27 25 25 26 25 23 23 22 22 22 21 19 17 20 21 19 17 14 11 9 10 10 18 18 17 16 16 16 16 15 14 14 13 13 12 11 11
29 28 28 28 26 26 27 26 24 24 23 23 23 22 21 21 22 21 21 18 19 19 17 16 12 12 9 12 14 17 15 15 15 15 15 14 13 12 11 11 10 10 10 7
28 28 27 26 25 25 26 26 25 25 24 24 24 24 23 23 22 19 17 19 18 19 18 14 12 11 10 16 17 16 16 14 14 14 14 13 12 11 9 9 9 8 7 7
27 27 26 26 24 22 22 23 23 23 23 23 24 25 24 21 20 19 18 17 17 17 16 15 12 10 8 16 16 15 14 13 12 13 13 10 11 11 10 8 8 7 6 5
26 26 26 25 23 23 23 23 23 22 21 19 19 18 19 21 21 20 19 17 15 18 13 10 9 8 14 15 14 12 11 12 11 9 8 9 8 7 7 8 6 5 3 1
23 22 23 24 24 24 23 21 21 23 20 20 21 21 22 21 21 18 17 16 15 14 15 16 13 12 12 10 9 9 10 10 9 9 8 6 5 5 5 5 4 3 3 1
22 21 20 19 19 18 18 18 17 17 20 20 19 19 19 20 18 17 17 15 14 14 13 13 13 11 12 9 9 9 7 8 7 6 5 4 3 3 3 2 1 0 -1 -2

GFSNGP_sfc_dewp_069.txt.gz
Dewpoint
27 29 28 27 25 22 24 29 29 30 29 28 27 26 26 29 29 28 31 30 35 41 48 55 54 53 52 52 52 52 51 49 48 48 49 48 47 46 46 46 45 44 44 43
28 28 26 27 26 22 22 22 23 28 29 29 26 24 27 30 29 29 32 36 38 49 54 53 53 51 50 49 50 50 49 48 47 46 46 45 45 45 44 44 43 43 42 42
27 28 27 27 27 29 26 22 23 22 24 25 23 21 24 28 30 35 39 40 46 53 54 53 52 50 49 48 48 48 48 47 47 46 45 45 44 43 42 42 42 42 41 41
30 29 23 27 27 27 26 25 23 22 22 22 21 23 26 28 31 39 41 42 53 53 53 52 50 49 48 48 47 47 46 46 46 45 44 43 42 42 42 41 40 39 40 40
29 27 28 28 26 27 26 25 24 22 23 23 22 33 33 36 39 42 44 48 51 52 51 51 49 49 48 47 47 46 45 45 44 44 43 42 42 41 40 39 39 39 40 40
32 26 22 30 32 30 29 26 29 30 28 29 30 30 33 41 44 45 47 49 49 50 51 50 49 48 47 46 45 45 44 43 42 42 42 40 40 39 40 40 40 41 39 34
30 31 32 33 31 33 27 28 32 33 30 31 30 34 37 43 43 44 46 47 48 47 47 46 47 46 44 43 42 42 42 42 42 41 40 40 41 40 40 38 33 32 31 32
32 31 28 34 31 29 33 34 35 36 36 39 39 40 41 42 42 42 44 45 45 44 43 43 43 42 41 41 42 42 41 41 40 41 40 40 38 33 33 33 32 29 28 28
34 33 37 38 38 37 39 38 38 38 38 42 41 40 41 41 41 40 41 42 42 42 42 42 42 42 40 41 40 40 39 39 36 34 32 30 30 29 28 28 26 25 26 26
36 37 41 44 45 42 40 40 38 38 38 44 43 42 40 40 39 39 40 40 40 41 41 41 41 40 40 39 37 36 32 30 29 25 23 21 25 26 25 24 24 25 26 24
38 39 40 40 44 38 40 42 41 41 37 37 41 40 40 39 39 38 39 39 40 40 40 39 39 38 36 35 33 30 28 23 23 23 21 21 24 23 20 22 25 23 23 23
34 38 39 38 39 38 36 38 42 42 40 38 42 40 39 38 38 38 38 39 39 39 34 33 33 32 33 32 29 25 24 24 24 23 23 18 19 21 24 24 24 23 22 22
27 32 38 42 43 40 39 41 41 41 40 39 42 39 39 38 38 37 38 38 35 32 29 22 21 21 24 26 26 24 23 24 25 24 23 24 23 22 21 24 23 22 21 19
34 38 35 37 40 41 40 40 41 40 40 40 39 39 39 38 37 37 34 30 26 22 20 19 19 19 21 22 23 24 25 26 25 25 25 24 23 24 24 23 22 23 22 20
40 38 36 40 40 40 39 39 39 39 39 39 39 38 36 33 31 29 26 22 19 19 18 18 18 19 20 22 22 23 24 24 24 23 23 24 25 25 24 23 23 22 22 22
42 41 41 40 39 39 38 38 38 38 38 33 29 27 26 24 22 21 21 20 19 17 16 19 19 22 21 21 21 22 23 25 25 25 24 23 23 22 21 20 20 20 20 19
39 39 39 39 38 36 35 35 34 30 28 26 25 23 21 20 19 19 19 20 20 20 20 21 21 23 25 25 25 24 22 22 23 23 22 21 20 19 19 19 18 18 17 14
35 35 35 37 35 32 30 29 28 26 24 24 23 22 21 20 19 20 21 21 20 19 20 21 21 22 22 23 23 22 22 21 20 19 19 18 16 16 18 17 17 16 15 15
33 32 31 30 29 28 27 26 25 24 24 24 23 22 22 22 22 20 20 18 17 16 18 20 21 20 20 21 21 20 20 19 17 17 17 15 16 17 15 14 13 12 12 12
28 28 27 27 27 26 25 25 25 24 24 22 22 21 20 20 20 19 18 17 19 19 20 20 19 18 17 18 19 18 18 17 16 16 16 14 13 12 11 12 13 10 6 6
27 27 26 25 24 25 25 25 24 23 23 22 20 20 19 20 20 19 17 15 19 21 20 19 18 16 11 12 14 18 17 15 15 14 13 10 9 10 8 6 6 5 4 4
26 25 24 24 23 23 24 24 23 22 22 21 21 20 19 18 18 18 19 17 19 20 17 13 11 11 10 15 16 15 15 13 13 12 11 8 6 4 4 3 1 3 1 -2
24 24 24 23 22 23 23 23 23 22 21 21 20 20 20 20 19 16 16 20 19 15 13 12 10 9 9 14 14 13 10 9 9 9 9 8 8 6 3 3 4 1 -3 -1
24 24 24 24 23 21 20 22 22 21 20 20 20 21 18 17 17 17 16 14 12 12 11 10 9 9 8 11 10 8 5 2 3 -0 -1 -3 -7 -0 3 -0 0 -1 -3 -8
25 25 25 23 22 22 22 22 21 20 18 17 18 18 18 18 16 16 15 15 15 11 9 8 8 7 6 1 -1 -3 -5 5 4 4 3 -1 -6 -11 -10 -4 -2 -1 -2 -4
20 19 19 20 20 20 19 19 19 18 17 16 17 17 17 17 17 15 15 14 13 12 11 7 9 5 0 -3 -7 -7 -5 -3 0 -2 -9 -10 -12 -9 -8 -4 -4 -5 -11 -16
18 18 17 16 16 16 16 15 14 14 16 14 13 14 15 13 13 11 10 9 7 5 4 3 3 3 0 -3 -4 -7 -8 -9 -8 -7 -13 -16 -16 -15 -7 -10 -15 -19 -17 -16

GFSNGP_sfc_dewp_072.txt.gz
Dewpoint
27 29 29 28 27 27 24 28 27 28 29 29 29 30 27 27 27 28 29 37 40 42 54 53 54 54 54 53 52 54 52 51 50 50 50 49 49 48 48 48 48 48 45 44
30 30 29 28 29 29 28 24 29 30 30 31 31 29 28 28 28 27 30 32 38 47 53 52 52 52 52 51 51 51 50 48 48 48 48 47 46 45 45 45 45 44 44 43
26 29 29 29 31 32 31 30 26 25 29 30 28 29 26 29 29 29 33 44 49 51 53 52 51 51 50 50 50 49 48 48 47 47 46 45 45 44 44 43 43 42 42 42
27 28 27 31 33 34 33 30 28 23 22 26 25 25 24 28 31 35 38 46 51 53 52 51 50 50 49 49 49 49 48 47 46 46 45 44 44 43 43 42 42 41 41 41
27 27 30 30 29 30 29 26 28 24 22 22 24 32 32 34 34 38 41 50 52 52 50 49 48 49 48 48 47 47 46 46 45 44 43 43 42 42 41 40 40 40 40 40
28 26 23 29 30 31 31 27 30 28 27 27 30 28 30 37 42 44 49 52 51 51 50 49 48 48 47 47 46 46 46 45 44 43 43 42 41 40 39 40 40 40 39 35
28 27 30 33 32 33 26 28 32 32 30 29 29 32 33 42 44 47 49 51 51 51 49 49 48 47 46 46 45 45 45 43 43 42 41 40 40 39 39 38 36 33 31 30
29 26 25 36 34 30 34 35 35 34 34 33 33 38 40 43 45 46 48 49 50 49 48 48 47 45 44 42 42 42 42 41 40 40 40 40 39 38 36 33 30 30 28 26
30 30 36 42 42 42 42 39 38 38 39 39 38 39 42 42 44 45 46 46 46 44 43 43 43 42 41 41 41 41 40 40 40 39 38 36 34 33 32 30 28 28 27 24
33 36 39 41 42 45 44 41 41 41 38 42 39 41 41 42 41 42 43 43 43 42 42 41 41 41 41 40 40 38 35 33 31 26 26 27 26 26 26 25 25 27 26 24
35 38 40 41 43 43 44 44 40 40 40 37 41 41 41 41 41 41 41 41 42 41 40 40 39 38 38 37 35 30 26 24 23 24 24 23 20 21 24 25 26 25 25 24
33 38 37 38 41 44 42 36 40 42 41 38 41 40 41 39 41 40 40 41 37 36 33 29 30 31 32 30 27 24 22 23 24 23 23 21 18 22 26 25 25 24 24 24
29 32 38 38 38 39 35 38 41 41 40 39 41 40 40 39 40 39 38 34 27 24 24 24 25 25 26 27 25 24 23 23 24 25 24 23 24 24 22 24 24 23 22 24
41 35 37 39 39 41 40 40 41 40 40 40 39 39 39 38 35 31 26 22 21 21 21 21 22 23 25 25 24 25 25 26 25 25 25 25 25 25 25 24 23 24 24 20
39 41 35 41 40 39 40 39 39 37 33 32 33 34 31 28 24 22 21 20 20 19 18 18 20 24 26 27 27 27 26 25 25 25 25 25 25 25 25 24 23 23 23 21
39 40 40 39 38 39 39 38 34 30 28 26 24 23 22 21 20 19 19 19 19 20 22 24 24 25 26 26 25 25 25 26 25 25 24 23 23 23 22 22 21 21 21 19
37 36 36 37 35 34 32 30 28 26 25 23 22 21 20 19 19 19 19 21 21 22 23 22 23 24 24 24 23 22 23 23 23 23 22 22 21 20 20 19 19 19 17 15
33 33 31 32 31 28 27 26 25 24 23 22 22 22 21 21 19 20 20 19 19 18 19 21 22 22 22 22 22 21 21 21 20 20 19 18 17 18 19 17 17 15 15 16
29 29 29 28 27 26 25 24 24 23 23 22 21 21 20 20 19 19 19 17 16 15 17 20 21 20 20 21 20 20 19 18 18 18 18 16 16 16 14 14 14 12 12 12
25 25 25 25 25 24 23 23 23 22 22 21 20 19 18 18 18 17 17 16 17 18 20 19 18 17 17 18 19 17 17 16 15 16 15 15 13 12 12 12 11 9 6 8
23 23 22 22 22 22 22 23 22 21 21 21 19 18 17 18 19 18 16 14 17 17 15 12 11 12 16 15 15 16 15 14 12 11 10 9 7 7 5 3 4 4 3 2
23 22 22 22 22 21 22 23 22 21 20 19 19 18 17 17 17 17 18 15 14 12 11 10 11 12 14 14 13 12 11 10 10 9 7 7 6 4 3 1 1 -1 -3 -6
22 22 22 21 21 21 21 21 21 21 19 19 18 18 17 18 18 14 12 14 12 10 10 11 11 11 11 9 8 6 4 3 1 -1 -2 -3 -3 -6 -4 -2 -1 -1 -5 -4
23 23 22 23 22 20 18 20 20 20 19 19 18 17 15 13 14 14 11 10 9 9 9 9 8 7 5 4 3 2 1 0 -4 -12 -10 -10 -15 -16 -12 -13 -5 -5 -4 -8
21 21 21 21 20 19 19 19 18 18 17 16 15 16 15 15 12 14 13 12 12 10 9 7 6 3 2 -0 -3 -7 -9 -12 -12 -14 -16 -19 -20 -21 -19 -15 -14 -13 -15 -19
17 16 17 18 18 18 19 18 16 15 13 13 13 13 14 13 13 11 9 8 7 6 6 4 1 -2 -6 -6 -10 -14 -14 -5 -6 -10 -18 -20 -21 -19 -19 -19 -21 -23 -24 -21
16 16 15 14 14 15 14 13 12 10 10 8 7 9 10 9 7 6 2 1 1 -2 -6 -12 -10 -8 -9 -14 -13 -15 -15 -15 -15 -17 -24 -24 -20 -22 -24 -25 -27 -25 -25 -23

GFSNGP_sfc_dewp_075.txt.gz
Dewpoint
25 24 30 29 28 29 26 26 25 27 30 30 31 31 30 28 28 27 31 36 40 42 46 50 49 51 51 52 53 55 55 55 55 54 53 53 55 56 54 53 52 51 49 46
26 27 27 27 29 30 29 29 28 28 30 32 32 30 31 30 27 27 28 31 39 44 52 52 52 51 52 53 52 53 52 53 51 51 50 49 48 48 47 47 47 46 45 44
27 30 31 28 30 28 30 32 31 27 30 31 31 30 30 29 29 29 28 30 40 45 52 52 52 53 52 52 52 52 51 50 49 49 48 47 47 46 45 46 45 44 43 43
28 30 25 30 33 31 31 32 33 30 27 26 28 30 29 30 29 30 29 31 36 45 52 51 51 51 51 51 51 50 49 49 49 48 46 45 45 44 43 43 42 42 42 42
29 27 28 30 32 32 33 31 33 32 30 26 24 28 27 33 30 32 35 38 46 50 51 51 51 50 50 49 49 49 48 48 47 46 45 44 43 42 42 42 42 42 42 41
32 26 21 28 30 32 34 30 34 31 31 32 30 28 28 30 34 36 40 50 50 49 50 49 49 50 49 48 48 47 47 46 45 45 44 43 42 41 41 42 41 40 36 35
32 31 30 32 34 35 31 30 35 33 31 33 30 32 30 36 42 45 49 50 50 49 48 48 49 49 48 48 47 47 46 45 44 44 43 42 41 41 40 40 37 32 30 30
30 28 27 36 37 31 35 37 38 38 35 36 36 34 35 38 43 47 49 50 49 48 48 48 48 47 46 46 46 45 44 43 42 42 41 40 40 39 36 35 32 30 28 26
31 30 35 40 39 42 42 39 39 41 40 41 40 38 40 41 45 47 49 48 48 48 47 46 46 45 43 42 43 42 41 41 40 40 39 38 37 33 31 31 29 28 26 25
35 35 39 40 42 44 44 42 40 39 40 39 39 39 41 42 45 45 46 46 45 45 44 42 43 43 42 41 41 40 39 35 32 31 29 28 28 30 29 29 29 27 25 23
35 37 39 39 40 39 42 44 40 39 40 41 40 41 43 42 43 44 43 43 44 43 41 40 41 40 40 39 37 31 29 28 27 26 24 22 24 25 25 26 28 27 26 24
27 32 37 34 37 41 42 42 38 40 41 39 40 41 42 41 42 42 42 41 38 34 34 34 35 33 33 32 30 28 26 26 26 23 21 20 20 22 26 26 26 26 25 24
38 39 37 38 38 41 40 36 40 40 40 40 41 41 40 40 39 34 31 30 29 28 27 26 26 26 26 27 26 26 25 24 24 23 23 23 23 24 23 26 26 26 26 25
39 39 35 39 38 41 42 41 39 35 35 38 39 39 37 29 26 24 23 24 24 24 24 24 24 24 25 26 26 26 26 27 26 26 26 26 25 25 25 25 24 24 25 22
35 36 40 40 40 41 41 39 33 31 29 28 28 28 25 22 21 20 20 20 21 23 24 24 25 26 27 28 27 27 27 26 26 25 25 25 25 25 25 24 23 24 24 24
34 38 38 37 36 35 35 33 29 28 25 23 21 20 20 20 20 21 22 23 22 23 23 24 24 25 26 26 26 25 25 25 25 24 23 22 22 21 21 21 21 21 20 19
33 33 32 34 31 29 28 28 26 24 23 21 21 21 20 20 20 19 20 20 21 21 22 22 22 23 24 24 24 23 22 22 22 21 20 19 19 19 19 19 18 17 16 16
33 31 30 30 28 27 25 24 23 22 22 22 21 20 19 19 18 18 19 19 18 18 19 20 21 21 21 22 21 21 20 19 19 18 17 16 18 17 16 16 15 15 15 15
29 27 27 26 26 25 23 22 22 22 21 20 19 18 18 18 17 17 17 16 15 14 16 19 21 20 19 20 18 18 17 17 17 16 16 15 14 14 13 13 11 9 9 10
24 24 23 23 23 22 21 22 21 21 21 19 18 17 16 16 17 16 15 13 15 15 17 18 18 18 17 17 16 15 15 14 13 13 12 11 9 8 7 8 7 4 3 5
22 22 21 21 21 21 21 21 20 18 19 19 17 16 16 17 17 16 13 10 13 15 16 16 15 14 14 13 12 12 11 10 9 7 6 3 2 2 -1 -2 -1 -4 -6 -8
21 21 20 20 20 20 21 21 20 19 18 17 17 17 15 13 13 12 13 11 12 13 13 12 11 10 9 10 9 8 8 6 4 3 -0 -1 -5 -9 -12 -14 -12 -11 -12 -12
21 21 20 19 19 19 20 19 18 17 16 15 15 15 15 15 15 10 8 10 11 11 9 8 7 6 5 5 4 2 -0 -2 -4 -8 -12 -16 -17 -20 -19 -18 -16 -16 -16 -13
21 21 20 21 20 18 16 18 18 17 16 15 15 16 13 10 10 10 10 10 9 8 6 5 4 3 1 -1 -4 -6 -9 -12 -15 -18 -16 -19 -25 -25 -23 -23 -19 -20 -21 -20
19 20 20 19 17 17 17 17 16 15 15 14 14 13 13 13 10 11 10 9 9 6 4 2 1 -3 -6 -9 -12 -13 -13 -15 -20 -22 -23 -25 -25 -26 -26 -25 -26 -26 -27 -26
16 15 16 16 17 17 16 15 12 12 10 9 10 10 9 9 8 6 5 4 3 0 -2 -5 -7 -9 -12 -14 -17 -18 -17 -14 -20 -21 -25 -25 -24 -23 -26 -24 -28 -27 -28 -26
14 15 14 12 12 12 11 9 7 6 7 6 6 7 5 4 3 1 -2 -5 -7 -9 -12 -14 -15 -13 -17 -22 -20 -21 -21 -21 -23 -23 -29 -28 -26 -28 -30 -30 -31 -31 -29 -30

GFSNGP_sfc_dewp_081.txt.gz
Dewpoint
33 32 33 31 23 23 27 28 26 27 26 28 31 31 32 34 34 32 31 34 41 45 48 51 51 50 49 50 50 51 51 51 51 53 53 52 53 55 56 56 56 56 56 57
32 32 32 30 27 23 26 26 27 28 28 31 31 32 32 33 34 32 32 32 36 40 44 48 50 51 51 51 51 51 50 51 52 52 52 54 54 56 56 56 56 56 56 55
27 32 33 28 27 25 24 27 28 27 29 32 31 33 33 33 34 33 34 33 33 37 41 44 47 50 51 51 52 52 51 51 52 52 52 54 55 54 55 55 52 50 48 48
29 33 26 28 31 29 27 27 31 31 31 31 32 33 34 34 34 34 34 36 34 34 39 45 48 48 51 51 52 52 52 52 53 54 54 51 51 51 48 47 46 45 44 44
29 30 31 31 34 33 30 28 31 31 30 31 32 32 33 32 31 33 35 37 37 36 40 50 51 52 52 52 52 52 52 52 52 52 50 49 48 45 44 44 43 43 43 42
33 27 23 31 34 35 34 30 35 35 36 35 31 33 34 35 39 37 37 36 35 39 48 50 51 52 52 52 51 51 50 50 51 50 49 47 44 43 43 42 39 38 37 37
30 29 31 34 35 38 29 31 37 39 37 36 36 36 40 42 41 41 47 47 49 49 49 50 51 51 51 50 49 49 48 47 46 45 44 43 43 42 38 36 34 32 31 31
31 29 26 37 38 34 38 41 41 40 39 41 42 41 42 42 45 48 49 48 49 49 49 50 50 50 49 47 47 46 45 43 43 42 42 41 39 37 35 33 31 30 29 28
33 32 37 39 40 42 43 43 42 42 42 43 43 43 43 44 47 47 48 47 47 47 48 49 49 48 46 45 44 43 42 40 40 39 39 38 36 35 33 33 31 30 28 26
32 31 35 36 38 40 40 42 43 44 41 42 43 42 42 45 46 46 47 47 45 45 44 43 45 45 44 43 42 41 39 38 37 35 34 33 34 34 33 32 31 29 27 24
32 33 37 35 38 40 40 41 40 41 41 41 41 43 44 44 44 43 43 44 44 43 42 41 42 41 41 41 40 37 36 34 32 31 29 28 29 29 29 30 31 28 26 25
30 38 38 38 38 40 40 41 41 41 40 41 43 43 41 38 37 37 36 36 34 33 32 31 32 33 35 36 34 32 30 29 29 28 27 27 26 26 31 30 30 30 29 28
35 36 36 37 38 37 38 34 32 33 36 35 34 34 33 31 30 30 31 31 30 30 31 29 29 30 31 31 30 29 28 27 27 27 27 27 26 25 24 27 27 27 27 26
34 35 36 37 35 34 35 31 30 28 27 27 27 27 28 28 27 27 28 28 28 28 28 29 29 29 31 31 30 29 28 29 28 27 27 27 27 27 26 26 25 24 25 24
31 33 35 34 31 30 31 31 28 26 26 25 25 26 26 25 25 25 25 24 24 25 26 27 26 27 28 28 27 27 26 25 25 25 26 26 26 25 25 24 23 22 21 20
30 32 32 31 28 26 27 27 26 25 24 24 24 23 22 21 20 20 21 21 20 20 21 22 22 25 26 26 24 23 23 24 24 24 24 23 22 21 21 20 19 18 17 17
27 29 29 29 27 25 24 24 23 23 22 22 21 20 19 18 18 18 18 19 19 20 20 20 21 23 24 23 22 22 22 21 21 20 19 19 19 18 18 18 16 15 14 14
26 28 27 27 26 24 23 22 22 21 19 19 18 18 18 17 16 17 18 18 17 17 19 20 21 21 21 22 22 21 20 19 17 17 16 16 15 15 15 14 13 12 12 9
24 24 25 25 25 23 21 20 20 19 19 18 17 16 16 16 16 16 17 16 15 14 15 18 20 19 19 20 18 18 17 16 14 12 12 11 12 11 11 11 9 9 8 8
21 21 21 21 22 21 19 20 19 18 17 16 15 14 13 13 14 14 13 12 14 15 16 16 16 15 14 13 13 12 12 11 9 9 9 8 8 7 7 5 6 6 6 5
19 20 19 18 18 18 18 18 16 15 15 15 13 12 12 14 15 14 12 9 12 14 13 13 12 9 7 7 7 9 9 7 6 6 4 4 3 3 2 3 2 2 2 2
18 17 17 17 16 16 17 17 16 15 14 13 13 13 12 11 10 9 11 10 11 10 8 7 6 6 5 6 5 6 4 4 3 3 2 1 1 0 -0 -0 -1 -2 -2 -2
19 18 17 16 15 15 16 15 14 13 12 12 11 11 11 12 11 8 5 7 5 5 4 5 4 3 3 4 4 3 2 0 -0 -0 -1 -1 -1 -2 -3 -3 -3 -4 -5 -5
18 18 17 18 17 14 13 15 14 14 13 13 12 12 10 8 8 6 5 4 4 4 4 4 2 1 1 2 1 0 -1 -1 -2 -2 -3 -6 -4 -4 -4 -5 -6 -6 -8 -9
17 17 17 16 14 13 13 13 12 11 9 9 9 9 8 7 7 6 5 4 3 2 2 -1 -1 -1 0 -0 -2 -3 -3 -3 -3 -3 -3 -4 -5 -6 -6 -7 -9 -9 -10 -10
14 12 13 13 13 13 13 12 9 9 6 6 6 6 6 5 3 2 1 -0 -1 -2 -1 -1 -2 -1 -2 -3 -3 -3 -3 -3 -3 -4 -6 -6 -6 -7 -9 -10 -11 -11 -11 -11
13 13 12 10 9 9 9 7 7 6 6 5 3 3 2 2 0 -2 -3 -2 -3 -3 -3 -3 -2 -3 -2 -3 -3 -4 -4 -4 -8 -5 -6 -6 -8 -9 -11 -12 -12 -12 -13 -13